Location: Asheville, NC
(35.6000°N, 82.5500°W)
Time: 20:16:40
(UTC-04:00)

CUBEBUG 2 - Pass Details

Date: 10 March 2018
Orbit: 586 x 699 km, 97.6° (Epoch: 24 June)

Event Time Altitude Azimuth Distance (km) Brightness Sun altitude
Rises 19:35:05 0° 192° (SSW) 3,038 ? -13.3°
Reaches altitude 10° 19:37:35 10° 203° (SSW) 2,113 ? -13.8°
Maximum altitude 19:41:36 29° 263° (W) 1,225 ? -14.6°
Drops below altitude 10° 19:45:32 10° 324° (NW) 2,070 ? -15.4°
Sets 19:47:59 0° 335° (NNW) 2,965 ? -15.9°
